Regional Weather Roundup
Issued by NWS Charleston, SC

Current Version | Previous Version | Graphics & Text | Print | Product List | Glossary On
Versions: 1 2 3 4 5 6 7 8 9 10 11 12 13 14 15 16 17 18 19 20 21 22 23 24 25 26 27 28 29 30 31 32 33 34 35 36 37 38 39 40 41 42 43 44 45 46 47 48 49 50
000
ASUS42 KCHS 040527
RWRCHS

REGIONAL WEATHER ROUNDUP
NATIONAL WEATHER SERVICE CHARLESTON SC
100 AM EDT SAT JUL 04 2015

NOTE: "FAIR" INDICATES FEW OR NO CLOUDS BELOW 12,000 FEET WITH NO
SIGNIFICANT WEATHER AND/OR OBSTRUCTIONS TO VISIBILITY.

NOT ALL STATIONS ARE QUALITY CONTROLLED BY THE NATIONAL
WEATHER SERVICE. USE DATA WITH CAUTION...ESPECIALLY
DEWPOINT OBSERVATIONS.

SCZ027-030-031-034>040-042>050-040600-
...SOUTHEAST SOUTH CAROLINA...

CITY           SKY/WX    TMP DP  RH WIND       PRES   REMARKS
N CHARLESTON   PTCLDY    79  75  87 SW10      30.01F
WATERFRONT PAR   N/A     81  77  88 SW9       29.99F
MOUNT PLEASANT LGT RAIN  81  73  78 SW12      30.02S
JOHNS ISLAND   FAIR      81  75  83 SW12G18   30.02F
PINOPOLIS      NOT AVBL
MONCKS CORNER  FAIR      77  73  88 CALM      30.00F FOG
SUMMERVILLE    FAIR      73  73 100 CALM      30.02F THUNDER
BEAUFORT MCAS  CLEAR     81  75  82 S7        30.03F
BEAUFORT ARPT  FAIR      81  75  83 SW8       30.02F
HILTON HEAD IS CLEAR     82  75  78 S9G17     30.04F
WALTERBORO     CLEAR     75  73  94 S7        30.03S THUNDER
ALLENDALE      FAIR      75  66  73 CALM      30.02S

...SOUTHERN MIDLANDS AND PEE DEE...

CITY           SKY/WX    TMP DP  RH WIND       PRES   REMARKS
GEORGETOWN     NOT AVBL
KINGSTREE      NOT AVBL
ORANGEBURG     MOCLDY    75  69  81 CALM      30.02F
BARNWELL       FAIR      73  73 100 CALM      30.03S
AIKEN          NOT AVBL
MANNING        FAIR      77  68  73 SW6       30.01F
COLUMBIA       PTCLDY    77  70  79 SW8       30.00F
SUMTER         MOCLDY    76  69  80 SW9       29.99S
FLORENCE       CLOUDY    80  68  66 SW10      29.97S
MYRTLE BEACH   CLEAR     79  72  78 SW15      30.01F
N MYRTLE BEACH PTCLDY    79  70  74 SW15G21   29.98S

$$

GAZ063-065-086>088-099>101-113>116-118-119-134>141-150-040600-
...SOUTHEAST GEORGIA...

CITY           SKY/WX    TMP DP  RH WIND       PRES   REMARKS
SAVANNAH ARPT  CLEAR     80  72  76 S9        30.04S
HUNTER AAF     CLEAR     81  75  81 S9        30.02S
FORT STEWART   CLEAR     77  72  86 S3        30.03S
STATESBORO     NOT AVBL
SYLVANIA       CLEAR     78  74  88 CALM      30.04S
CLAXTON        FAIR      75  73  94 CALM      30.04R

...CSRA...CENTRAL AND FAR SOUTHEAST GEORGIA...

CITY           SKY/WX    TMP DP  RH WIND       PRES   REMARKS
THOMSON        PTCLDY    75  75 100 CALM      30.06F
AUGUSTA-BUSH   PTCLDY    76  70  82 SW15      30.01F
AUGUSTA-DANIEL PTCLDY    78  72  81 CALM      30.03F
SWAINSBORO     FAIR      81  73  78 S3        30.04S
VIDALIA        CLEAR     79  72  78 SW3       30.05R
EASTMAN        FAIR      80  73  77 SW5       30.07R
HAZLEHURST     FAIR      81  74  80 SW3       30.05R
ALMA           PTCLDY    79  73  82 SW5       30.05F
WAYCROSS       CLEAR     81  76  85 W5        30.06S
JESUP          FAIR      79  73  83 CALM      30.06R
BAXLEY         FAIR      81  73  78 CALM      30.05S
BRUNSWICK      CLEAR     81  73  78 SW7       30.06S
SAINT SIMONS   CLEAR     81  73  76 SW9       30.05F

$$

SCZ027-028-034-036>038-045-046-048>050-GAZ119-141-040600-
...LAKE AND SUPPLEMENTAL COASTAL OBSERVATIONS...

STATION/POSITION TIME  TEMP    WIND        PRES    WAVE   SWELL
                       AIR SEA DIR/SP/G            HT/PER HT/PER/DIR
                 (UTC) (F)     (DEG/KT/KT) (MB)    (FT/S) (FT/S/D)
UPR LAKE MARION  NOT AVBL
WINYAH BAY       0445   77     250/  5     1015.0S
LAKE MURRAY      0400   80     250/  9/ 13 1015.9R
ACE BASIN NERRS  NOT AVBL
FORT PULASKI     0500   82 84  200/ 11/ 15 1017.7F
SAPELO ISLAND    0500   80     190/ 10     1017.0F

$$

ANZ835-935-AMZ111-154-330-350-352-354-370-450-454-472-040600-
...C-MAN AND BUOY OBSERVATIONS...

STATION/POSITION TIME  TEMP    WIND        PRES    WAVE   SWELL
                       AIR SEA DIR/SP/G            HT/PER HT/PER/DIR
                 (UTC) (F)     (DEG/KT/KT) (MB)    (FT/S) (FT/S/D)
BUOY 41004       0450   83 81  210/ 19/ 23 1015.9F   4/ 9   2/ 9
BUOY 41008       0450   80 79  200/ 17/ 21 1017.5F   3/ 9   2/140/ 9
FOLLY BEACH CMAN 0500   81     230/ 15/ 19 1016.6F
CAPERS NEARSHORE 0408   82     230/ 19/ 25 1017.3R
FRIPP NEARSHORE  0400   83     210/ 19/ 23 1016.9R


STATION/POSITION TIME  TEMP    WIND        PRES    WAVE   SWELL
                       AIR SEA DIR/SP/G            HT/PER HT/PER/DIR
                 (UTC) (F)     (DEG/KT/KT) (MB)    (FT/S) (FT/S/D)
5E ST. MARYS GA  0421      77                N/A     3/ 4
FRYING PAN BUOY  0450   81 79  210/ 21/ 25 1015.6R   7/ 6   2/170/ 9
BUOY 41025       0450   80 81  230/ 25/ 29 1012.5R   7/ 7   2/180/ 9
CAPE LOOKOUT NC  0500   80     240/ 19/ 25 1013.8R
BUOY 41002       0450   81 80  230/ 14/ 16 1019.2F   5/ 6   3/130/ 8
BUOY 41010       0420   83 84  170/ 10/ 10 1020.2F
ST AUGUSTINE FL  0500   79 73  230/  6/  9 1019.8F


$$


USA.gov is the U.S. government's official web portal to all federal, state and local government web resources and services.